Monterey, CA

4:35 AM PST on December 11, 2016 (GMT -0800)
Monterey Peninsula

Weather History for KMRY - October, 2011

Change the Weather History Date:

Sunday, October 16, 2011

  Actual Average Record
Temperature  
Mean Temperature 63 °F 59 °F  
Max Temperature 69 °F 67 °F 82 °F (2008)
Min Temperature 56 °F 50 °F 44 °F (1998)
Degree Days  
Heating Degree Days 2    
Month to date heating degree days 56  
Since 1 July heating degree days 467  
Cooling Degree Days 0    
Month to date cooling degree days 10  
Year to date cooling degree days 25  
Growing Degree Days 13 (Base 50)    
Moisture  
Dew Point 54 °F    
Average Humidity 74    
Maximum Humidity 86    
Minimum Humidity 61    
Precipitation  
Precipitation 0.00 in - 1.13 in (2016)
Month to date precipitation 2.13  
Year to date precipitation 15.04  
Since 1 July precipitation 2.25  
Sea Level Pressure  
Sea Level Pressure 30.06 in    
Wind  
Wind Speed 4 mph (NE)    
Max Wind Speed 12 mph    
Max Gust Speed 14 mph    
Visibility 10 miles    
Events      
T = Trace of Precipitation, MM = Missing Value Source: NWS Daily Summary

Daily Weather History Graph

Daily Weather History Graph

Search for Another Location

Airport or City:

Trip Planner

Search our weather history database for the weather conditions in past years. The results will help you decide how hot, cold, wet, or windy it might be!

Date:

Astronomy

Oct. 16, 2011 Rise Set
Actual Time 7:15 AM PDT 6:29 PM PDT
Civil Twilight 6:49 AM PDT 6:55 PM PDT
Nautical Twilight 6:19 AM PDT 7:25 PM PDT
Astronomical Twilight 5:49 AM PDT 7:55 PM PDT
Moon 9:27 PM PDT (10/16) 11:30 AM PDT (10/16)
Length of Visible Light 12h 06m
Length of Day
11h 14m
Waning Gibbous, 81% of the Moon is Illuminated
Oct 16
Waning Gibbous
Oct 19
Last Quarter
Oct 26
New
Nov 2
First Quarter
Nov 10
Full

Hourly Weather History & Observations

Time (PDT) Temp. Dew Point Humidity Pressure Visibility Wind Dir Wind Speed Gust Speed Precip Events Conditions
12:54 AM 60.1 °F 55.0 °F 83% 30.02 in 10.0 mi ESE 6.9 mph - N/A   Scattered Clouds
1:54 AM 59.0 °F 54.0 °F 83% 30.03 in 10.0 mi SE 4.6 mph - N/A   Clear
2:30 AM 59.0 °F 53.6 °F 82% 30.00 in 10.0 mi Calm Calm - N/A   Mostly Cloudy
2:40 AM 57.2 °F 53.6 °F 88% 30.00 in 10.0 mi East 3.5 mph - N/A   Mostly Cloudy
2:47 AM 57.2 °F 53.6 °F 88% 30.00 in 10.0 mi ENE 4.6 mph - N/A   Overcast
2:54 AM 59.0 °F 53.1 °F 81% 30.03 in 10.0 mi East 5.8 mph - N/A   Mostly Cloudy
3:12 AM 59.0 °F 53.6 °F 82% 29.99 in 10.0 mi ENE 4.6 mph - N/A   Scattered Clouds
3:29 AM 59.0 °F 53.6 °F 82% 29.99 in 10.0 mi East 4.6 mph - N/A   Mostly Cloudy
3:54 AM 59.0 °F 54.0 °F 83% 30.03 in 10.0 mi East 4.6 mph - N/A   Mostly Cloudy
4:05 AM 60.8 °F 53.6 °F 77% 29.99 in 10.0 mi East 6.9 mph - N/A   Scattered Clouds
4:54 AM 59.0 °F 54.0 °F 83% 30.04 in 10.0 mi East 4.6 mph - N/A   Clear
5:54 AM 57.9 °F 53.1 °F 84% 30.05 in 10.0 mi East 5.8 mph - N/A   Clear
6:54 AM 57.9 °F 53.1 °F 84% 30.05 in 10.0 mi East 8.1 mph - N/A   Clear
7:54 AM 59.0 °F 54.0 °F 83% 30.07 in 10.0 mi Calm Calm - N/A   Clear
8:54 AM 62.1 °F 54.0 °F 75% 30.09 in 10.0 mi East 4.6 mph - N/A   Clear
9:54 AM 64.9 °F 55.9 °F 73% 30.10 in 10.0 mi West 3.5 mph - N/A   Clear
10:54 AM 68.0 °F 55.9 °F 65% 30.12 in 10.0 mi NW 4.6 mph - N/A   Scattered Clouds
11:54 AM 68.0 °F 55.0 °F 63% 30.12 in 10.0 mi West 5.8 mph - N/A   Scattered Clouds
12:54 PM 68.0 °F 55.9 °F 65% 30.11 in 10.0 mi West 5.8 mph - N/A   Clear
1:54 PM 69.1 °F 55.0 °F 61% 30.09 in 10.0 mi NW 8.1 mph - N/A   Clear
2:54 PM 68.0 °F 55.0 °F 63% 30.09 in 10.0 mi NNW 8.1 mph - N/A   Clear
3:54 PM 68.0 °F 55.0 °F 63% 30.09 in 10.0 mi NW 8.1 mph - N/A   Clear
4:54 PM 66.9 °F 55.0 °F 66% 30.08 in 10.0 mi NW 9.2 mph - N/A   Clear
5:54 PM 64.9 °F 55.0 °F 70% 30.08 in 10.0 mi WNW 4.6 mph - N/A   Clear
6:54 PM 64.0 °F 55.0 °F 73% 30.08 in 10.0 mi Calm Calm - N/A   Clear
7:54 PM 62.1 °F 55.0 °F 78% 30.10 in 10.0 mi Calm Calm - N/A   Clear
8:54 PM 61.0 °F 54.0 °F 78% 30.11 in 10.0 mi Calm Calm - N/A   Clear
9:54 PM 59.0 °F 53.1 °F 81% 30.11 in 10.0 mi Calm Calm - N/A   Clear
10:54 PM 57.0 °F 52.0 °F 83% 30.12 in 10.0 mi Calm Calm - N/A   Clear
11:54 PM 57.2 °F 51.8 °F 82% 30.08 in 10.0 mi Calm Calm - N/A   Clear